STARLINK-32002, 60200

Orbit data source: Space-Track

STARLINK-32002, 60200 is a payload satellite owned by SpaceX/Seattle (US) in LEO that was launched on Wed, 03 Jul 2024 UTC via an FALCON 9 launch vehicle from the Air Force Eastern Test Range (AFETR). Payload-class satellites include a variety of spacecraft equipped with specific instruments for various scientific and technological missions. These include communications satellites like Starlink; space stations such as the ISS; scientific satellites like the Hubble; Earth observation satellites from companies like Planet Labs, Umbra, and HawkEye 360; GPS; miniature CubeSats for education and research; and military/defense satellites.

Loading next visibility...
Identifier
60200, 2024-124T
Orbit
LEO
Country
Flag of USUS
Related business
Manufacturer
SpaceX/Seattle
Mission
Operational Commercial Communications
Bus & Motor
STARLINK V2M, Unknown motor
Mass
730 kg wet, ~700 kg dry
Launch date (UTC)
2024-07-03 (2 years ago)
Launch vehicle
FALCON 9
Launch site
Air Force Eastern Test Range (AFETR)
Object type
Payload
Rocket body
Debris
Shape & HBR
Box + 2 Pan, 17.7 m
Radar Cross Section
33.884 m², Large (>1 m²)

Expand to show TLE details & history
Last TLE update: 6 hours ago

TLE from 6 hours ago
0 STARLINK-32002
1 60200U 24124T   26125.23775717  .00002765  00000-0  10080-3 0  9998
2 60200  53.1609  59.8218 0001236  86.0547 274.0596 15.31710142102954
Epoch: 2026-05-05T05:42Z
TLE epoch observation values (Epoch: 2026-05-05T05:42:22.219Z)
Latitude
Longitude
111.11374°
Altitude
471.55 km
Speed
7.632 km/s
True Right ascension
03h 59m 17s
True Declination
0° 00' 00"
Sunlit
Object was in daylight at epoch
Visualization orbit readout
Latitude
Unknown
Longitude
Unknown
Altitude
Unknown
Speed
Unknown
Apparent Right ascension
Unknown
Apparent Declination
Unknown
Sunlit
N/A
Visualization observer readout
Local Sidereal Time
19:57:43
Azimuth
Unknown
Elevation
Unknown
Doppler factor
Unknown
Orbital elements
Apogee altitude
471.813 km
Perigee altitude
470.12 km
Semi-major axis
6,849.103 km
Eccentricity
0.00012
Inclination
53.1609°
RAAN
59.8218°
Arg. of periapsis
86.0547°
True anomaly
274.04547°
Mean anomaly
274.0596°
Eccentric anomaly
274.05254°
Mean motion
3.82906 °/min
Orbital period
94.02 mins
BSTAR
0.0001008
Loading maneuver chart data...
Computing Atmospheric mass density...
Loading historical data...
Loading historical data...
Loading historical data...
Loading historical data...
Loading historical data...
Loading historical data...
Loading historical data...

Documentation

Showing up to 5 results
|